Terug naar catalogus

USA 459

ActiefMilitairVLEO
NORAD 62358·PAYLOAD·🇺🇸 United States

Gelanceerd Dec 17, 2024 vanaf Vandenberg Space Force Base

Loading…

Volgende Passages (komende 24 uur)

TLE

VerouderdSource: Mike McCants

Epoch: Aug 20, 2026, 20:25 UTC

1 62358U 24243U   26232.85084661 0.00000000  00000-0  00000-0 0    05
2 62358  70.0200 134.4560 0002000 215.8499 144.1501 14.96713314    03

Volg USA 459 in realtime met AllMySat

Download on the App Store